Regional Weather Roundup
Issued by NWS

Home | Current Version | Previous Version | Graphics & Text | Print | Product List | Glossary On
Versions: 1 2 3 4 5 6 7 8 9 10 11 12 13 14 15 16 17 18 19 20 21 22 23 24 25 26 27 28 29 30 31 32 33 34 35 36 37 38 39 40 41 42 43 44 45 46 47 48 49 50
000
ASUS44 KMEG 260510
RWRTN
TENNESSEE HOURLY STATE WEATHER ROUNDUP
NATIONAL WEATHER SERVICE MEMPHIS TN
1200 AM CDT MON JUN 26 2017

TNZ002-004-019-021-049-052-054-088>092-260600-
WEST TENNESSEE

CITY           SKY/WX    TMP DP  RH WIND       PRES   REMARKS
MEMPHIS INTL   CLEAR     68  58  70 SW3       30.19S
NWS MEMPHIS      N/A     65 N/A N/A MISG        N/A
JACKSON        CLEAR     63  61  93 CALM      30.19S
SOMERVILLE     CLEAR     63  61  94 CALM      30.18S
COVINGTON      CLEAR     66  61  82 CALM      30.18F
UNION CITY     CLEAR     68  59  73 CALM      30.17S
BOLIVAR        CLEAR     61  59  94 CALM      30.19S
PARIS          CLEAR     63  57  82 CALM      30.17S
HUNTINGDON     CLEAR     63  59  88 CALM      30.17S
LEXINGTON      CLEAR     61  59  94 CALM      30.18S
SELMER         CLEAR     59  57  94 CALM      30.19S
SAVANNAH       CLEAR     59  59 100 CALM      30.19S
$$

TNZ008-025-027-028-033-062-065-066-260600-
NORTH MIDDLE TENNESSEE

CITY           SKY/WX    TMP DP  RH WIND       PRES   REMARKS
NASHVILLE      CLEAR     64  56  75 S5        30.18S
PORTLAND       CLEAR     61  57  88 CALM      30.17S
CLARKSVILLE    CLEAR     62  56  80 CALM      30.17S
SMYRNA         CLEAR     62  56  80 SE5       30.19S
COOKEVILLE     CLEAR     55  55 100 CALM      30.19S
GALLATIN       CLEAR     61  57  88 CALM      30.20S
CROSSVILLE     CLEAR     55  51  86 CALM      30.23F
$$

TNZ061-075-076-078-094-096-097-260600-
SOUTH MIDDLE TENNESSEE

CITY           SKY/WX    TMP DP  RH WIND       PRES   REMARKS
FAYETTEVILLE   CLEAR     64  55  72 CALM      30.19F
TULLAHOMA      CLEAR     57  54  88 CALM      30.21S
WINCHESTER     CLEAR     55  55 100 CALM        N/A
MCMINNVILLE    CLEAR     57  57 100 CALM      30.20F
COLUMBIA       CLEAR     59  59 100 CALM      30.17F
SHELBYVILLE    CLEAR     59  57  94 E5        30.19S
$$

TNZ017-018-042-046-047-260600-
NORTHEAST TENNESSEE

CITY           SKY/WX    TMP DP  RH WIND       PRES   REMARKS
TRI CITIES     CLEAR     56  53  90 CALM      30.20S
ELIZABETHTON   CLEAR     54  52  94 CALM      30.22S
$$

TNZ012-013-036-069-073-074-260600-
CENTRAL EAST TENNESSEE

CITY           SKY/WX    TMP DP  RH WIND       PRES   REMARKS
KNOXVILLE      NOT AVBL
OAK RIDGE      CLEAR     60  53  77 CALM      30.21S
DOWNTOWN KNOXV CLEAR     59  57  94 CALM      30.18F
GATLINBURG     CLEAR     55  54  94 CALM      30.19F
MORRISTOWN     PTCLDY    61  52  72 CALM      30.19F
JACKSBORO        N/A     55  55 100 CALM      30.23F
$$

TNZ083-085-099-260600-
SOUTHEAST TENNESSEE

CITY           SKY/WX    TMP DP  RH WIND       PRES   REMARKS
CHATTANOOGA    CLEAR     63  55  75 CALM      30.19S
$$

SKY/WX REPORTED AS FAIR MEANS FEW OR NO CLOUDS BELOW
12 THOUSAND FEET.




USA.gov is the U.S. government's official web portal to all federal, state and local government web resources and services.